Location: LDNL
(36.4545°S, 141.6685°E)
Time: 22:19:27
(UTC+11:00)

ISS - Pass Details

Date: 17 December 2021
Orbit: 413 x 422 km, 51.6° (Epoch: 22 January)

Event Time Altitude Azimuth Distance (km) Brightness Sun altitude
Rises 03:14:54 0° 221° (SW) 2,382 0.4 -25.2°
Reaches altitude 10° 03:17:11 10° 210° (SSW) 1,513 -0.6 -25.0°
Maximum altitude 03:20:12 29° 147° (SSE) 805 -1.7 -24.7°
Drops below altitude 10° 03:23:13 10° 84° (E) 1,503 -0.7 -24.4°
Sets 03:25:29 0° 72° (ENE) 2,362 0.2 -24.2°
